Perth, Australia

6:55 PM AWST on August 24, 2017 (GMT +0800)
Perth International

Weather History for YPPH - September, 2013

Change the Weather History Date:

Thursday, September 12, 2013

  Actual Average Record
Temperature  
Mean Temperature 61 °F -  
Max Temperature 67 °F 70 °F 78 °F (2011)
Min Temperature 55 °F 49 °F 40 °F (2012)
Degree Days  
Heating Degree Days 4    
Growing Degree Days 11 (Base 50)    
Moisture  
Dew Point 51 °F    
Average Humidity 73    
Maximum Humidity 100    
Minimum Humidity 38    
Precipitation  
Precipitation 0.02 in 0.08 in - ()
Sea Level Pressure  
Sea Level Pressure 29.99 in    
Wind  
Wind Speed 12 mph ()    
Max Wind Speed 20 mph    
Max Gust Speed 34 mph    
Visibility 6.8 miles    
Events Rain    
Averages and records for this station are not official NWS values.
T = Trace of Precipitation, MM = Missing Value Source: Averaged Metar Reports

Daily Weather History Graph

Daily Weather History Graph

Search for Another Location

Airport or City:

Trip Planner

Search our weather history database for the weather conditions in past years. The results will help you decide how hot, cold, wet, or windy it might be!

Date:

Astronomy

Sep. 12, 2013 Rise Set
Actual Time 6:19 AM AWST 6:06 PM AWST
Civil Twilight 5:54 AM AWST 6:30 PM AWST
Nautical Twilight 5:26 AM AWST 6:59 PM AWST
Astronomical Twilight 4:58 AM AWST 7:27 PM AWST
Moon 10:43 AM AWST (9/12) No Moon Set
Length of Visible Light 12h 35m
Length of Day
11h 47m
Waxing Crescent, 44% of the Moon is Illuminated
Sep 12
Waxing Crescent
Sep 13
First Quarter
Sep 19
Full
Sep 27
Last Quarter
Oct 5
New

Hourly Weather History & Observations

Time (AWST) Temp. Dew Point Humidity Pressure Visibility Wind Dir Wind Speed Gust Speed Precip Events Conditions
12:00 AM 58 °F 52 °F 73% 29.87 in 9 mi WSW 15.0 mph - - Rain Light Rain Showers
12:00 AM 57.2 °F 51.8 °F 82% 29.86 in 6.2 mi WSW 15.0 mph - N/A   Mostly Cloudy
12:30 AM 57.2 °F 51.8 °F 82% 29.86 in 6.2 mi WSW 9.2 mph - N/A   Scattered Clouds
1:00 AM 57.2 °F 53.6 °F 88% 29.86 in 6.2 mi WSW 12.7 mph - N/A   Partly Cloudy
1:30 AM 59.0 °F 51.8 °F 77% 29.86 in 6.2 mi West 11.5 mph - N/A   Partly Cloudy
2:00 AM 59 °F 50 °F 64% 29.88 in - WSW 12.7 mph - -  
2:00 AM 59.0 °F 50.0 °F 72% 29.86 in 6.2 mi WSW 12.7 mph - N/A   Scattered Clouds
2:30 AM 59.0 °F 51.8 °F 77% 29.86 in 6.2 mi West 12.7 mph - N/A   Scattered Clouds
3:00 AM 58 °F 50 °F 68% 29.88 in 16 mi WSW 17.3 mph - -   Partly Cloudy
3:00 AM 59.0 °F 50.0 °F 72% 29.86 in 6.2 mi WSW 17.3 mph - N/A   Partly Cloudy
3:30 AM 59.0 °F 51.8 °F 77% 29.86 in 6.2 mi WSW 13.8 mph - N/A   Scattered Clouds
4:00 AM 59.0 °F 51.8 °F 77% 29.86 in 6.2 mi West 16.1 mph 27.6 mph N/A Rain Light Rain Showers
4:30 AM 59.0 °F 51.8 °F 77% 29.89 in 5.0 mi West 16.1 mph - N/A Rain Light Rain Showers
5:00 AM 58 °F 51 °F 72% 29.91 in - WSW 12.7 mph - -  
5:00 AM 57.2 °F 51.8 °F 82% 29.89 in 6.2 mi WSW 12.7 mph - N/A   Partly Cloudy
5:09 AM 57.2 °F 51.8 °F 82% 29.89 in 5.6 mi WSW 17.3 mph 31.1 mph N/A Rain Light Rain Showers
5:30 AM 57.2 °F 53.6 °F 88% 29.89 in 6.2 mi WSW 13.8 mph - N/A Rain Light Rain Showers
6:00 AM 57 °F 53 °F 82% 29.93 in 7 mi SW 16.1 mph - - Rain Light Rain Showers
6:00 AM 57.2 °F 53.6 °F 88% 29.92 in 5.6 mi SW 16.1 mph - N/A Rain Light Rain Showers
6:30 AM 57.2 °F 53.6 °F 88% 29.92 in 5.6 mi SW 9.2 mph - N/A   Mostly Cloudy
7:00 AM 57.2 °F 51.8 °F 82% 29.92 in 6.2 mi SW 11.5 mph - N/A Rain Light Rain Showers
7:30 AM 59.0 °F 51.8 °F 77% 29.95 in 6.2 mi SW 16.1 mph - N/A   Mostly Cloudy
8:00 AM 60 °F 52 °F 69% 29.97 in - SW 13.8 mph - -  
8:00 AM 60.8 °F 51.8 °F 72% 29.95 in 6.2 mi SW 13.8 mph - N/A   Scattered Clouds
8:30 AM 60.8 °F 50.0 °F 68% 29.98 in 6.2 mi WSW 18.4 mph 34.5 mph N/A Rain Light Rain Showers
9:00 AM 62.6 °F 51.8 °F 68% 29.98 in 6.2 mi WSW 12.7 mph 29.9 mph N/A   Mostly Cloudy
9:25 AM 62.6 °F 50.0 °F 63% 29.98 in 6.2 mi WSW 19.6 mph 31.1 mph N/A Rain Rain Showers
9:31 AM 60.8 °F 50.0 °F 68% 30.01 in 6.2 mi WSW 19.6 mph 31.1 mph N/A   Mostly Cloudy
10:00 AM 60.8 °F 50.0 °F 68% 30.01 in 6.2 mi West 15.0 mph - N/A   Mostly Cloudy
10:30 AM 62.6 °F 48.2 °F 59% 30.01 in 6.2 mi WSW 18.4 mph - N/A   Mostly Cloudy
11:00 AM 64 °F 47 °F 43% 30.02 in - WSW 17.3 mph - -  
11:00 AM 64.4 °F 46.4 °F 52% 30.01 in 6.2 mi WSW 17.3 mph - N/A   Mostly Cloudy
11:30 AM 64.4 °F 44.6 °F 49% 30.01 in 6.2 mi West 18.4 mph - N/A   Scattered Clouds
12:00 PM 64.4 °F 44.6 °F 49% 30.01 in 6.2 mi West 15.0 mph - N/A   Mostly Cloudy
12:30 PM 66.2 °F 46.4 °F 49% 30.01 in 6.2 mi WSW 17.3 mph - N/A   Scattered Clouds
1:00 PM 66.2 °F 44.6 °F 46% 30.01 in 6.2 mi West 17.3 mph - N/A   Mostly Cloudy
1:30 PM 66.2 °F 44.6 °F 46% 30.01 in 6.2 mi WSW 16.1 mph - N/A   Scattered Clouds
2:00 PM 64 °F 46 °F 40% 30.02 in - WSW 15.0 mph - -  
2:00 PM 64.4 °F 46.4 °F 52% 30.01 in 6.2 mi WSW 15.0 mph - N/A   Mostly Cloudy
2:30 PM 64.4 °F 48.2 °F 56% 30.01 in 6.2 mi WSW 13.8 mph - N/A   Mostly Cloudy
3:00 PM 65 °F 45 °F 38% 30.03 in 16 mi WSW 17.3 mph - -   Partly Cloudy
3:00 PM 64.4 °F 44.6 °F 49% 30.01 in 6.2 mi WSW 17.3 mph - N/A   Partly Cloudy
3:30 PM 64.4 °F 42.8 °F 45% 30.01 in 6.2 mi WSW 16.1 mph - N/A   Mostly Cloudy
4:00 PM 66.2 °F 44.6 °F 46% 30.01 in 6.2 mi West 11.5 mph - N/A   Mostly Cloudy
4:30 PM 62.6 °F 46.4 °F 55% 30.04 in - West 12.7 mph - N/A   Clear
5:00 PM 62 °F 48 °F 50% 30.05 in - West 10.4 mph - -  
5:00 PM 62.6 °F 48.2 °F 59% 30.04 in 6.2 mi West 10.4 mph - N/A   Mostly Cloudy
5:30 PM 60.8 °F 50.0 °F 68% 30.04 in 6.2 mi SW 12.7 mph - N/A Rain Light Rain Showers
5:47 PM 57.2 °F 55.4 °F 94% 30.06 in 3.7 mi WSW 13.8 mph - N/A   Drizzle
6:00 PM 57 °F 54 °F 85% 30.07 in 16 mi SSW 5.8 mph - -   Mostly Cloudy
6:00 PM 57.2 °F 53.6 °F 88% 30.06 in 6.2 mi SSW 5.8 mph - N/A   Mostly Cloudy
6:30 PM 55.4 °F 53.6 °F 94% 30.06 in 6.2 mi West 4.6 mph - N/A   Scattered Clouds
7:00 PM 55.4 °F 53.6 °F 94% 30.06 in 6.2 mi WNW 4.6 mph - N/A   Scattered Clouds
7:30 PM 55.4 °F 53.6 °F 94% 30.06 in 6.2 mi NNW 6.9 mph - N/A   Scattered Clouds
8:00 PM 56 °F 54 °F 91% 30.09 in - NNW 5.8 mph - -  
8:00 PM 57.2 °F 53.6 °F 88% 30.09 in 6.2 mi NNW 5.8 mph - N/A   Scattered Clouds
8:30 PM 57.2 °F 55.4 °F 94% 30.09 in 6.2 mi West 5.8 mph - N/A   Scattered Clouds
9:00 PM 57 °F 56 °F 93% 30.10 in 16 mi WSW 5.8 mph - - Rain Light Rain Showers
9:00 PM 57.2 °F 55.4 °F 94% 30.09 in 6.2 mi WSW 5.8 mph - N/A   Scattered Clouds
9:30 PM 55.4 °F 53.6 °F 94% 30.09 in 6.2 mi WSW 4.6 mph - N/A   Scattered Clouds
10:00 PM 55.4 °F 53.6 °F 94% 30.09 in 6.2 mi SSW 4.6 mph - N/A   Mostly Cloudy
10:14 PM 55.4 °F 55.4 °F 100% 30.09 in 3.7 mi SW 6.9 mph - N/A   Drizzle
10:30 PM 57.2 °F 55.4 °F 94% 30.06 in 6.2 mi WNW 4.6 mph - N/A   Mostly Cloudy
11:00 PM 56 °F 55 °F 95% 30.07 in - Calm Calm - -  
11:00 PM 55.4 °F 55.4 °F 100% 30.06 in 6.2 mi Calm Calm - N/A   Mostly Cloudy
11:30 PM 55.4 °F 55.4 °F 100% 30.06 in 6.2 mi East 5.8 mph - N/A   Scattered Clouds